Fayetteville, NC

6:36 AM EDT on September 27, 2016 (GMT -0400)
Fayetteville Regional-Grannis

Weather History for KFAY - November, 2012

Change the Weather History Date:

Sunday, November 11, 2012

  Actual Average Record
Temperature  
Mean Temperature 58 °F 56 °F  
Max Temperature 75 °F 69 °F 85 °F (1931)
Min Temperature 40 °F 44 °F 23 °F (1933)
Degree Days  
Heating Degree Days 7 9  
Month to date heating degree days 164 90  
Since 1 July heating degree days 290 217  
Cooling Degree Days 0 1  
Month to date cooling degree days 0 11  
Year to date cooling degree days 2083 1989  
Growing Degree Days 6 (Base 50)    
Moisture  
Dew Point 47 °F    
Average Humidity 68    
Maximum Humidity 92    
Minimum Humidity 44    
Precipitation  
Precipitation 0.00 in 0.10 in 2.41 in (2009)
Month to date precipitation 0.04 0.93  
Year to date precipitation 35.56 39.97  
Sea Level Pressure  
Sea Level Pressure 30.42 in    
Wind  
Wind Speed 3 mph (SE)    
Max Wind Speed 13 mph    
Max Gust Speed 16 mph    
Visibility 10 miles    
Events      
T = Trace of Precipitation, MM = Missing Value Source: NWS Daily Summary

Daily Weather History Graph

Daily Weather History Graph

Search for Another Location

Airport or City:

Trip Planner

Search our weather history database for the weather conditions in past years. The results will help you decide how hot, cold, wet, or windy it might be!

Date:

Astronomy

Nov. 11, 2012 Rise Set
Actual Time 6:46 AM EST 5:12 PM EST
Civil Twilight 6:19 AM EST 5:39 PM EST
Nautical Twilight 5:49 AM EST 6:09 PM EST
Astronomical Twilight 5:19 AM EST 6:39 PM EST
Moon 4:03 AM EST (11/11) 3:31 PM EST (11/11)
Length of Visible Light 11h 19m
Length of Day
10h 25m
Waning Crescent, 7% of the Moon is Illuminated
Nov 11
Waning Crescent
Nov 13
New
Nov 20
First Quarter
Nov 28
Full
Dec 6
Last Quarter

Hourly Weather History & Observations

Time (EST) Temp. Windchill Dew Point Humidity Pressure Visibility Wind Dir Wind Speed Gust Speed Precip Events Conditions
12:53 AM 46.9 °F - 39.0 °F 74% 30.38 in 10.0 mi Calm Calm - N/A   Clear
1:53 AM 45.0 °F - 39.0 °F 80% 30.38 in 10.0 mi Calm Calm - N/A   Clear
2:53 AM 43.0 °F - 37.9 °F 82% 30.39 in 10.0 mi Calm Calm - N/A   Clear
3:53 AM 43.0 °F - 37.9 °F 82% 30.39 in 10.0 mi Calm Calm - N/A   Clear
4:53 AM 41.0 °F - 37.9 °F 89% 30.41 in 9.0 mi Calm Calm - N/A   Clear
5:53 AM 39.9 °F - 37.9 °F 93% 30.42 in 9.0 mi Calm Calm - N/A   Clear
6:53 AM 39.9 °F - 37.9 °F 93% 30.43 in 6.0 mi Calm Calm - N/A   Clear
7:53 AM 44.1 °F 42.5 °F 41.0 °F 89% 30.46 in 6.0 mi NNE 3.5 mph - N/A   Clear
8:53 AM 53.1 °F - 45.0 °F 74% 30.47 in 10.0 mi Calm Calm - N/A   Clear
9:53 AM 62.1 °F - 46.0 °F 56% 30.48 in 10.0 mi Calm Calm - N/A   Clear
10:53 AM 66.9 °F - 46.0 °F 47% 30.47 in 10.0 mi Calm Calm - N/A   Clear
12:53 PM 73.0 °F - 52.0 °F 48% 30.43 in 10.0 mi ESE 4.6 mph - N/A   Scattered Clouds
1:53 PM 73.9 °F - 53.1 °F 48% 30.41 in 10.0 mi South 9.2 mph - N/A   Overcast
2:53 PM 73.0 °F - 52.0 °F 48% 30.41 in 10.0 mi South 4.6 mph - N/A   Clear
3:53 PM 73.0 °F - 53.1 °F 49% 30.40 in 10.0 mi SE 3.5 mph - N/A   Clear
4:53 PM 69.1 °F - 53.1 °F 57% 30.40 in 10.0 mi SE 5.8 mph - N/A   Partly Cloudy
5:53 PM 66.0 °F - 54.0 °F 65% 30.41 in 10.0 mi SE 5.8 mph - N/A   Mostly Cloudy
6:53 PM 62.1 °F - 54.0 °F 75% 30.42 in 10.0 mi SE 5.8 mph - N/A   Clear
7:53 PM 62.1 °F - 55.0 °F 78% 30.43 in 10.0 mi SE 8.1 mph - N/A   Clear
8:53 PM 59.0 °F - 54.0 °F 83% 30.43 in 10.0 mi ESE 5.8 mph - N/A   Clear
9:53 PM 57.0 °F - 54.0 °F 89% 30.43 in 10.0 mi ESE 6.9 mph - N/A   Clear
10:53 PM 57.0 °F - 54.0 °F 89% 30.42 in 10.0 mi SE 3.5 mph - N/A   Clear
11:53 PM 55.9 °F - 54.0 °F 93% 30.41 in 8.0 mi Calm Calm - N/A   Clear